Presure
458 425 440 416 366 215 193 176 142 155 166 196 178 183 178 175 169 165 173 167 148 172 168 175 175 192 175 204 178 156 169 147 168 139 169 170 164 156 171 155 168 169 148 149
426 449 437 358 352 294 224 194 182 176 142 171 159 198 165 167 172 181 181 170 174 175 174 174 177 172 159 164 176 208 149 166 150 164 155 171 160 151 141 157 158 157 164 178
407 400 394 392 341 325 251 250 173 192 154 169 148 172 161 152 172 178 169 184 182 179 143 179 165 173 165 178 181 184 185 188 167 167 162 161 154 143 142 175 180 172 168 159
397 405 382 423 341 261 257 258 219 186 167 188 160 157 162 187 178 186 178 178 177 156 170 142 177 182 179 172 162 177 174 170 161 163 169 151 150 186 175 173 173 164 164 160
420 354 388 380 350 322 260 242 242 229 231 186 178 179 184 169 145 175 186 180 176 179 176 177 184 156 186 182 173 168 176 168 178 182 185 180 173 171 171 182 148 145 151 177
403 361 371 353 329 337 263 281 246 235 200 231 190 188 182 173 183 174 174 178 182 183 183 183 187 182 182 176 168 178 180 177 174 171 170 178 183 162 181 171 161 184 169 158
364 351 361 336 323 302 245 250 255 232 217 213 211 203 175 193 147 178 184 132 176 167 174 140 152 174 173 162 174 134 168 168 184 154 178 165 170 174 170 177 180 143 162 182
340 339 344 339 319 297 252 260 253 250 221 220 228 218 268 198 216 187 184 177 184 182 185 180 182 182 179 179 179 173 156 175 168 173 163 176 178 179 174 173 175 169 190 167
341 354 334 320 323 294 279 283 276 243 241 242 221 214 204 209 208 195 189 188 193 176 188 186 189 198 182 190 189 194 142 137 186 189 185 152 223 192 205 180 211 218 206 215
311 337 310 304 324 284 284 258 264 255 228 221 227 223 213 174 206 194 220 210 190 185 195 180 212 188 199 201 214 175 185 143 184 149 166 189 174 195 155 204 212 189 213 201
316 316 363 303 295 317 289 270 266 262 243 221 224 220 217 214 206 192 193 186 184 187 204 210 210 212 144 206 198 145 192 157 212 179 195 210 215 196 201 188 165 205 209 177
319 313 335 321 302 297 286 288 275 266 234 221 226 219 236 219 231 242 221 210 199 206 207 196 205 209 196 208 216 212 187 196 201 220 218 209 156 199 197 177 196 162 194 188
326 332 312 319 283 289 305 307 293 271 239 224 224 221 220 213 212 215 218 221 212 205 211 212 208 208 208 200 206 220 198 144 203 221 193 184 197 198 207 188 205 201 197 193
320 313 305 311 283 285 291 285 267 257 244 233 225 220 220 219 211 215 216 219 213 202 210 219 204 203 213 196 201 203 201 182 210 193 204 210 217 201 208 192 192 194 198 197
323 302 285 306 297 277 263 281 281 258 233 230 217 211 211 221 212 213 206 203 219 217 219 208 213 209 218 214 209 203 204 205 220 203 208 207 213 220 201 198 205 198 202 202
334 318 280 290 287 277 272 306 273 264 239 223 224 222 222 212 204 203 215 208 202 206 209 218 233 216 212 205 208 201 204 209 200 209 212 197 204 184 202 205 199 202 200 192
336 309 287 296 286 280 279 293 272 266 245 222 214 208 216 212 208 211 214 214 213 218 214 214 216 209 214 218 214 224 208 205 206 202 200 210 203 211 209 213 202 175 200 215
330 333 296 292 295 295 293 298 273 259 255 227 215 220 217 206 202 206 205 207 210 213 210 155 213 206 211 217 222 209 216 211 191 210 211 207 212 205 213 140 202 207 204 204
325 334 345 286 286 299 302 274 264 260 249 247 233 225 219 216 209 211 212 207 204 212 217 212 209 218 131 129 209 167 239 231 229 207 217 230 200 208 224 129 217 221 215 212
328 336 338 281 285 291 276 262 267 271 253 249 243 234 231 221 217 213 209 212 212 215 217 223 232 224 135 229 218 225 227 208 203 216 111 209 111 215 205 239 226 220 226 232
358 354 358 283 285 291 296 265 274 266 255 189 241 233 220 216 221 216 216 205 217 216 222 220 219 222 216 159 219 215 219 132 215 202 203 189 216 214 214 203 201 208 213 217
377 347 345 284 272 282 267 270 259 255 258 257 240 231 225 218 219 204 210 212 206 208 217 206 203 204 204 215 210 212 207 203 134 201 212 210 214 215 221 222 215 218 222 232
342 338 310 280 275 289 278 282 274 262 265 255 239 223 216 211 210 205 210 214 216 225 217 216 210 208 204 211 213 217 207 210 212 213 211 213 214 218 242 243 226 235 234 233
378 337 290 274 279 279 290 286 282 275 259 254 250 235 221 211 221 210 221 221 219 216 221 213 211 213 210 215 210 209 210 213 215 87 213 214 228 239 242 235 241 248 242 239
314 306 289 282 287 280 281 279 279 275 271 268 266 257 244 239 240 232 228 221 222 226 217 216 208 208 213 216 214 220 221 218 218 223 224 221 235 243 233 241 246 246 242 255
355 301 292 278 276 272 283 269 271 274 278 279 280 273 262 253 248 244 239 239 233 226 224 220 218 222 225 224 133 225 229 230 233 236 234 237 239 240 242 245 251 254 263 269
311 298 291 284 273 259 275 272 265 268 265 269 281 298 297 285 258 250 250 244 240 235 94 240 235 232 232 233 232 235 241 246 255 257 256 255 251 257 257 256 282 281 282 291
Wind_Speed
57 76 82 99 108 157 156 153 101 106 128 147 137 131 135 132 130 128 131 122 87 119 111 109 105 107 103 92 105 102 101 93 100 87 92 91 95 98 92 100 96 89 94 95
65 61 87 99 109 124 147 160 154 143 112 121 106 138 117 112 131 135 130 127 126 124 116 116 113 101 102 95 94 84 92 99 96 97 96 93 97 95 85 98 101 102 92 85
62 73 76 92 106 113 129 134 141 162 122 128 103 122 111 83 124 129 123 128 128 125 80 120 100 107 87 91 95 94 91 85 96 96 96 94 96 90 90 89 82 84 82 81
66 62 92 100 104 122 128 125 152 155 102 151 110 113 84 133 128 134 130 128 125 90 108 75 115 112 112 106 82 101 96 94 86 89 90 84 92 85 86 82 79 80 81 81
62 85 73 106 108 110 127 133 134 135 148 148 142 136 139 111 95 127 130 129 125 125 117 121 120 69 115 110 106 97 100 94 92 94 90 87 84 83 82 82 75 80 81 78
59 89 94 110 113 123 133 127 135 152 155 131 151 148 143 126 139 123 126 123 122 121 121 119 117 116 115 94 84 101 101 100 96 94 87 88 88 78 84 80 76 78 76 77
66 69 95 110 114 116 133 136 136 141 157 148 137 156 120 143 107 132 137 85 126 110 115 82 96 116 108 83 99 81 88 86 94 72 84 80 81 86 80 78 78 78 75 78
72 86 91 112 116 128 143 146 145 139 150 139 129 138 95 136 116 139 139 128 128 124 123 122 119 120 117 116 110 102 80 96 91 91 77 86 89 85 79 76 74 74 75 79
77 81 102 114 124 129 132 127 127 136 135 125 135 138 147 139 143 140 140 137 129 113 120 119 121 120 109 116 114 112 89 83 99 94 62 61 72 83 79 72 72 61 66 61
89 74 110 114 104 124 133 126 140 136 142 140 131 129 130 108 133 135 97 115 127 125 120 101 116 118 108 75 95 75 102 81 98 70 68 89 80 80 79 75 69 69 66 65
96 93 81 116 113 116 129 132 129 127 131 135 134 130 123 127 138 134 135 134 127 126 114 106 101 84 84 71 108 83 107 86 78 92 80 81 71 75 79 68 82 70 68 73
100 99 99 119 119 121 126 137 145 133 138 134 127 128 111 115 94 84 95 111 123 106 107 119 108 94 118 98 76 84 90 91 94 69 70 80 80 84 80 80 76 77 73 69
94 89 101 110 117 118 124 121 120 124 128 130 129 121 119 120 115 114 108 102 102 118 107 102 106 98 98 105 92 70 105 82 94 69 87 82 81 74 78 74 79 77 78 77
95 94 101 110 115 115 113 122 125 120 121 122 121 120 121 118 116 109 108 99 102 111 108 100 110 108 96 110 103 102 99 91 86 86 78 77 70 84 83 76 80 78 82 81
99 107 107 97 107 116 116 121 116 119 121 123 122 121 119 116 112 108 112 112 97 107 107 110 107 104 94 100 100 97 96 91 78 85 85 84 84 79 84 85 89 84 87 90
103 107 106 107 112 114 121 117 119 122 124 123 125 119 115 115 115 115 107 108 115 120 113 101 100 101 101 97 96 97 93 89 88 87 89 77 85 78 87 88 84 86 85 79
100 108 110 115 119 120 120 119 116 117 121 124 124 119 118 115 114 112 115 107 113 115 109 99 102 104 101 98 94 89 93 89 90 91 89 90 91 94 94 96 91 73 89 102
95 105 113 110 112 116 112 106 111 119 128 125 121 121 118 114 113 114 114 114 112 108 111 74 106 103 102 93 92 93 95 90 81 91 92 93 95 89 98 52 92 96 95 93
96 96 96 105 104 107 105 107 116 122 120 126 124 121 118 115 118 115 116 109 102 113 109 109 103 106 62 67 89 71 86 84 84 84 85 90 78 87 98 50 99 103 101 99
98 89 89 106 109 107 110 114 122 119 122 125 125 120 120 118 117 116 111 115 115 112 112 113 96 98 64 93 96 94 88 81 81 88 40 88 47 91 85 97 98 99 104 107
92 84 90 105 104 103 107 112 107 111 120 79 120 121 118 115 117 115 119 106 111 109 112 102 99 97 101 80 102 92 88 64 88 82 85 80 91 94 95 84 86 95 100 103
71 89 97 105 104 104 112 115 109 115 124 120 121 120 117 116 117 104 109 109 105 100 108 87 67 83 89 108 100 99 90 86 64 78 94 92 94 98 104 107 102 107 107 115
84 96 98 105 107 103 112 112 122 124 115 114 117 112 109 109 110 99 109 109 111 115 104 98 95 102 98 105 104 101 90 95 97 99 95 97 104 108 119 118 116 119 118 116
79 102 102 105 106 106 102 104 104 104 105 113 120 117 109 103 112 99 113 111 111 104 106 101 108 114 104 106 97 98 99 100 104 28 110 110 121 122 122 118 124 128 125 125
87 104 107 103 104 97 95 96 95 104 110 113 117 116 114 115 120 121 118 112 114 115 109 112 109 97 94 104 103 108 111 110 109 114 118 116 125 124 121 129 132 130 128 131
92 103 102 96 95 94 91 91 97 100 100 102 107 110 112 114 117 118 120 121 118 116 119 118 105 110 114 114 50 116 120 122 125 127 125 127 129 129 131 131 132 131 130 126
98 98 98 99 96 88 87 91 89 85 89 93 93 88 94 100 113 114 116 115 117 119 27 121 120 119 118 118 119 124 127 126 126 124 123 123 125 127 128 129 118 118 117 113
Wind_Direction
209 212 210 208 217 224 228 237 226 241 238 235 240 238 238 240 244 247 248 250 255 253 254 255 253 258 254 259 257 262 264 267 270 272 275 276 280 283 285 290 289 293 295 299
205 211 204 213 210 216 223 229 236 231 236 244 232 237 244 245 243 243 245 248 249 252 254 257 260 256 253 256 259 263 263 265 270 271 276 274 279 282 284 289 289 289 293 295
207 202 199 199 206 210 216 223 231 232 237 244 232 241 234 244 243 244 245 245 247 250 247 255 259 260 262 263 263 261 260 261 264 267 269 273 277 281 283 285 285 288 290 292
205 190 196 198 199 208 217 219 224 234 229 236 239 234 242 236 238 241 244 245 248 256 256 238 257 257 258 261 263 265 265 264 262 264 268 270 273 279 279 281 281 283 288 287
198 193 187 190 190 192 212 217 219 222 228 233 241 245 242 243 237 240 241 244 248 250 251 254 256 257 258 257 262 264 266 268 270 271 272 275 278 280 278 281 277 281 284 290
197 195 191 188 194 192 206 207 214 222 229 227 235 238 241 246 242 250 249 246 247 249 252 254 256 258 260 254 260 263 263 266 268 272 275 277 279 268 281 282 280 284 285 284
184 190 189 189 191 194 204 211 213 219 224 227 228 234 232 241 237 243 246 241 248 253 254 250 251 260 263 262 267 241 263 261 266 267 274 276 275 278 281 282 283 273 283 286
180 181 187 191 192 190 200 201 212 214 221 225 225 230 215 237 237 243 246 248 249 250 250 253 254 258 261 264 266 268 253 275 269 269 269 273 275 277 277 279 281 282 283 279
182 188 187 189 191 195 205 207 208 214 215 213 222 228 235 235 238 242 246 250 248 254 254 256 257 257 257 261 264 266 246 246 276 277 246 247 276 276 278 278 286 271 289 288
190 185 191 192 192 196 200 202 209 209 217 221 221 226 232 235 238 242 241 247 250 252 253 256 255 258 259 247 261 242 268 262 274 240 267 282 280 284 262 292 293 277 292 293
187 189 191 191 192 198 198 201 207 208 213 221 222 224 227 231 237 242 243 247 251 255 254 252 255 253 258 251 268 240 269 253 266 268 271 278 277 284 288 279 279 292 288 290
188 192 192 192 192 197 200 198 205 203 210 219 218 222 218 228 226 217 225 239 245 245 246 254 253 249 259 258 253 260 270 270 273 264 265 276 253 282 284 267 288 262 291 289
181 187 190 188 195 199 203 202 206 204 208 216 217 220 221 225 229 231 232 233 237 245 247 246 251 252 255 261 258 245 270 257 273 259 279 270 280 276 282 286 280 284 288 292
182 183 189 191 197 201 203 202 204 202 206 213 216 218 222 223 228 230 232 232 234 242 244 242 248 250 247 259 259 262 265 267 268 277 264 272 263 281 276 273 285 287 289 291
186 188 191 189 196 200 202 203 200 202 208 211 216 220 224 224 227 229 234 238 232 239 238 244 246 248 246 251 255 264 264 265 262 269 269 274 272 262 275 279 278 284 283 285
186 188 193 192 195 200 205 204 200 201 205 210 213 216 218 223 227 231 231 234 238 243 245 241 241 247 249 253 254 260 262 261 266 265 265 275 276 275 279 280 282 284 284 285
188 189 196 196 198 202 204 201 199 200 204 211 217 221 218 222 226 229 232 232 236 237 244 244 246 249 250 251 255 251 258 262 265 268 271 268 276 273 276 274 279 279 283 278
193 191 197 198 201 205 206 201 200 202 204 210 218 217 219 225 229 230 234 237 239 242 244 238 248 251 253 253 253 257 258 262 267 266 266 269 270 275 273 273 280 281 283 283
198 196 194 198 201 204 205 199 202 205 206 209 214 217 220 221 228 229 232 236 239 242 244 246 250 250 242 250 257 254 257 258 261 266 267 265 272 274 269 270 276 276 281 284
200 196 194 195 201 201 202 202 204 203 206 209 211 215 217 221 227 229 234 235 240 242 244 247 248 252 243 251 260 260 262 267 270 270 271 273 274 275 279 277 279 282 281 282
200 195 193 196 199 202 203 207 204 204 208 207 211 214 218 221 224 228 232 239 240 244 245 248 255 255 259 253 263 265 268 264 268 273 275 276 278 279 280 279 280 283 284 286
193 187 183 195 199 202 203 205 205 207 209 208 212 216 217 221 225 235 236 237 243 248 247 255 260 259 261 261 265 267 270 273 266 276 277 279 281 283 282 283 285 286 287 288
189 185 184 194 199 201 205 206 207 208 208 209 214 220 222 226 231 238 238 240 242 245 250 253 257 258 262 263 266 269 274 273 275 277 279 281 283 283 279 278 283 284 286 287
188 185 188 196 200 204 206 208 210 211 212 213 217 221 224 230 230 241 238 241 245 249 249 254 255 256 261 264 270 272 275 276 276 266 278 279 280 280 279 283 285 286 286 285
189 184 191 198 201 204 205 208 208 213 216 217 218 219 222 225 228 232 237 240 243 245 249 250 256 262 267 267 270 270 272 274 275 275 275 278 279 278 282 283 283 284 285 286
182 186 192 199 202 205 205 206 211 214 218 222 223 222 222 225 228 231 235 237 241 245 247 250 257 258 260 262 260 268 269 271 272 273 274 275 276 279 280 281 282 283 283 283
177 181 187 194 201 205 205 209 213 218 222 225 229 231 228 228 229 232 235 238 241 244 236 249 252 254 258 261 264 266 268 270 270 271 272 272 273 276 277 279 280 280 281 283